Weather History for KBKW - April, 2012

Change the Weather History Date:

Monday, April 9, 2012

  Actual Average Record
Temperature  
Mean Temperature 52 °F 50 °F  
Max Temperature 63 °F 61 °F 80 °F (2001)
Min Temperature 41 °F 40 °F 15 °F (1972)
Degree Days  
Heating Degree Days 13 15  
Month to date heating degree days 105 147  
Since 1 July heating degree days 3844 4860  
Cooling Degree Days 0 0  
Month to date cooling degree days 2 0  
Year to date cooling degree days 15 1  
Growing Degree Days 2 (Base 50)    
Moisture  
Dew Point 23 °F    
Average Humidity 33    
Maximum Humidity 43    
Minimum Humidity 22    
Precipitation  
Precipitation T in 0.11 in 1.04 in (1916)
Month to date precipitation 0.57 0.96  
Year to date precipitation 11.81 10.10  
Snow  
Snow 0.00 in - - ()
Month to date snowfall 0.0  
Since 1 September snowfall 35.9  
Snow Depth 0.00 in    
Sea Level Pressure  
Sea Level Pressure 29.96 in    
Wind  
Wind Speed 12 mph (WNW)    
Max Wind Speed 28 mph    
Max Gust Speed 37 mph    
Visibility 10 miles    
Events      
T = Trace of Precipitation, MM = Missing Value Source: NWS Daily Summary

Daily Weather History Graph

Daily Weather History Graph

Search for Another Location

Airport or City:

Trip Planner

Search our weather history database for the weather conditions in past years. The results will help you decide how hot, cold, wet, or windy it might be!

Date:

Astronomy

Apr. 09, 2012 Rise Set
Actual Time 6:57 AM EDT 7:55 PM EDT
Civil Twilight 6:30 AM EDT 8:22 PM EDT
Nautical Twilight 5:58 AM EDT 8:53 PM EDT
Astronomical Twilight 5:25 AM EDT 9:26 PM EDT
Moon 11:44 PM EDT (4/9) 8:47 AM EDT (4/9)
Length of Visible Light 13h 51m
Length of Day
12h 57m
Waning Gibbous, 88% of the Moon is Illuminated
Apr 9
Waning Gibbous
Apr 13
Last Quarter
Apr 21
New
Apr 29
First Quarter
May 5
Full

Hourly Weather History & Observations

Time (EDT) Temp. Windchill Dew Point Humidity Pressure Visibility Wind Dir Wind Speed Gust Speed Precip Events Conditions
12:51 AM 48.9 °F - 24.1 °F 38% 30.06 in 10.0 mi NNW 10.4 mph 20.7 mph N/A   Clear
1:51 AM 48.0 °F - 19.9 °F 33% 30.07 in 10.0 mi NNW 8.1 mph 18.4 mph N/A   Clear
2:51 AM 46.0 °F 43.9 °F 19.0 °F 34% 30.06 in 10.0 mi WNW 4.6 mph - N/A   Clear
3:51 AM 44.1 °F 42.5 °F 19.0 °F 37% 30.05 in 10.0 mi West 3.5 mph - N/A   Clear
4:51 AM 44.1 °F 40.8 °F 19.0 °F 37% 30.03 in 10.0 mi NW 5.8 mph - N/A   Clear
5:51 AM 43.0 °F 38.8 °F 19.0 °F 38% 30.03 in 10.0 mi West 6.9 mph - N/A   Clear
6:51 AM 43.0 °F 40.3 °F 19.0 °F 38% 30.04 in 10.0 mi WSW 4.6 mph - N/A   Clear
7:51 AM 43.0 °F 40.3 °F 21.9 °F 43% 30.05 in 10.0 mi SW 4.6 mph - N/A   Clear
8:51 AM 48.0 °F - 23.0 °F 37% 30.03 in 10.0 mi WSW 8.1 mph - N/A   Clear
9:51 AM 53.1 °F - 24.1 °F 32% 30.01 in 10.0 mi West 13.8 mph 18.4 mph N/A   Clear
10:51 AM 55.9 °F - 24.1 °F 29% 30.00 in 10.0 mi WNW 12.7 mph 23.0 mph N/A   Clear
11:51 AM 57.9 °F - 23.0 °F 26% 29.98 in 10.0 mi West 11.5 mph 24.2 mph N/A   Clear
12:51 PM 60.1 °F - 24.1 °F 25% 29.94 in 10.0 mi West 16.1 mph 31.1 mph N/A   Partly Cloudy
1:51 PM 61.0 °F - 21.0 °F 21% 29.91 in 10.0 mi NW 12.7 mph 27.6 mph N/A   Mostly Cloudy
2:51 PM 62.1 °F - 24.1 °F 23% 29.90 in 10.0 mi West 20.7 mph 29.9 mph N/A   Mostly Cloudy
3:51 PM 62.1 °F - 25.0 °F 24% 29.88 in 10.0 mi West 19.6 mph 29.9 mph N/A   Overcast
4:51 PM 61.0 °F - 26.1 °F 26% 29.86 in 10.0 mi West 23.0 mph 33.4 mph N/A   Mostly Cloudy
5:51 PM 61.0 °F - 27.0 °F 27% 29.85 in 10.0 mi West 17.3 mph 28.8 mph N/A   Mostly Cloudy
6:51 PM 60.8 °F - 28.4 °F 29% 29.86 in 10.0 mi WNW 9.2 mph 21.9 mph N/A   Overcast
7:51 PM 57.9 °F - 27.0 °F 31% 29.86 in 10.0 mi WNW 15.0 mph 26.5 mph 0.00 in   Partly Cloudy
8:51 PM 55.9 °F - 26.1 °F 32% 29.89 in 10.0 mi WNW 13.8 mph 28.8 mph N/A   Partly Cloudy
9:51 PM 55.0 °F - 28.0 °F 35% 29.91 in 10.0 mi WNW 11.5 mph 21.9 mph N/A   Mostly Cloudy
10:51 PM 53.1 °F - 27.0 °F 37% 29.91 in 10.0 mi WNW 10.4 mph 19.6 mph N/A   Partly Cloudy
11:51 PM 53.1 °F - 21.9 °F 30% 29.92 in 10.0 mi WNW 15.0 mph 20.7 mph N/A   Mostly Cloudy